This is the latest recevied weather packets stored in our database for station/object N6GPM. If no packets are shown the sender has not sent any weather packets the latest 10 day(s).
| Time | Temp. | Humidity | Pressure | Rain* | Wind** | Luminosity | Snow |
|---|---|---|---|---|---|---|---|
| 1788472703 | 28.33° C | 37% | 1016.3 hPa | 0 mm | - | 791 W/m² | - |
| 1788472400 | 28.33° C | 38% | 1016.4 hPa | 0 mm | - | 797 W/m² | - |
| 1788472098 | 28.33° C | 36% | 1016.3 hPa | 0 mm | - | 810 W/m² | - |
| 1788471813 | 28.33° C | 36% | 1016.3 hPa | 0 mm | - | 822 W/m² | - |
| 1788471488 | 28.33° C | 35% | 1016.4 hPa | 0 mm | - | 836 W/m² | - |
| 1788471184 | 28.33° C | 36% | 1016.6 hPa | 0 mm | - | 846 W/m² | - |
| 1788470879 | 28.89° C | 34% | 1016.4 hPa | 0 mm | - | 861 W/m² | - |
| 1788470576 | 28.33° C | 34% | 1016.5 hPa | 0 mm | - | 872 W/m² | - |
| 1788470269 | 28.33° C | 35% | 1016.4 hPa | 0 mm | - | 883 W/m² | - |
| 1788469966 | 28.89° C | 33% | 1016.5 hPa | 0 mm | - | 893 W/m² | - |
| 1788469661 | 28.33° C | 34% | 1016.7 hPa | 0 mm | - | 904 W/m² | - |
| 1788469357 | 27.78° C | 33% | 1016.7 hPa | 0 mm | - | 912 W/m² | - |
| 1788469056 | 28.33° C | 34% | 1016.7 hPa | 0 mm | - | 924 W/m² | - |
| 1788468756 | 27.78° C | 33% | 1016.7 hPa | 0 mm | - | 928 W/m² | - |
| 1788468451 | 27.22° C | 34% | 1016.8 hPa | 0 mm | - | 938 W/m² | - |
| 1788468147 | 27.78° C | 34% | 1016.9 hPa | 0 mm | - | 948 W/m² | - |
| 1788467843 | 27.78° C | 33% | 1016.7 hPa | 0 mm | - | 958 W/m² | - |
| 1788467538 | 27.22° C | 34% | 1016.9 hPa | 0 mm | - | 958 W/m² | - |
| 1788467232 | 27.22° C | 34% | 1016.9 hPa | 0 mm | - | 963 W/m² | - |
| 1788466929 | 27.78° C | 33% | 1016.9 hPa | 0 mm | - | 970 W/m² | - |
| 1788466627 | 27.22° C | 34% | 1016.9 hPa | 0 mm | - | 971 W/m² | - |
| 1788466322 | 27.22° C | 34% | 1016.9 hPa | 0 mm | - | 975 W/m² | - |
| 1788466016 | 27.22° C | 35% | 1017 hPa | 0 mm | - | 975 W/m² | - |
| 1788465712 | 27.22° C | 35% | 1017.2 hPa | 0 mm | - | 975 W/m² | - |
| 1788465408 | 26.67° C | 36% | 1017.2 hPa | 0 mm | - | 978 W/m² | - |
* Rain latest hour (hover to see other rain measurements)
** Current wind speed in m/s (hover to see current wind gust speed)